Location: Brompton
(51.4000°N, 0.5333°E)
Time: 17:10:33
(UTC+00:00)

Cosmos 1242 Rocket - Pass Details

Date: 11 May 2021
Orbit: 445 x 484 km, 81.2° (Epoch: 16 June)

Event Time Altitude Azimuth Distance (km) Brightness Sun altitude
Rises 20:25:07 0° 189° (S) 2,511 5.9 -6.9°
Reaches altitude 10° 20:27:13 10° 188° (S) 1,632 4.9 -7.1°
Maximum altitude 20:30:47 82° 100° (E) 479 2.4 -7.5°
Drops below altitude 10° 20:34:20 10° 14° (NNE) 1,624 5.6 -8.0°
Sets 20:36:24 0° 14° (NNE) 2,497 6.6 -8.2°
